Terminal Aerodrome Forecast
Issued by NWS

Home | Current Version | Previous Version | Text Only | Print | Product List | Glossary On
Versions: 1 2 3 4 5 6 7 8 9 10 11 12 13 14 15 16 17 18 19 20 21 22 23
735
FTUS45 KCYS 081840 CCA
TAFAIA
TAF COR
KAIA 081840Z 0819/0918 31018G28KT P6SM BKN100
     FM082300 31011KT P6SM BKN100=

USA.gov is the U.S. government's official web portal to all federal, state and local government web resources and services.